Skip Navigation Links weather.gov 
NOAA logo-Select to go to the NOAA homepage NDBC Title GraphicClick to go to NDBC home page   Select to go to the NWS homepage
Home About Us Contact Us
 
 
    
    Station List

 Data Access
    Mobile Access
    Classic Maps
         Recent
         DART®
    Obs Search
    Ship Obs Report
    BuoyCAMs
    TAO
    DODS
    OceanSITES
    HF Radar
    OSMC
    Dial-A-Buoy
    RSS Feeds Image indicating link to RSS feed access page
    Web Widget
    Email Access
    Web Data Guide
    Maintenance Schedule
    Station Status Report

 Program Info
    TAO
    DART®
    IOOS®

 Publications
    NDBC PEA
    NDBC FONSI
    NDBC DQC Handbook

 FAQ
 Visitor Information
 
USA.gov is the U.S. government's official web portal to all federal, state and local government web resources and services.

Hurricane Symbol Storm Special! View the latest observations near East Pacific Tropical Storm Vicente and East Pacific Tropical Storm Willa.

Station YKRV2 - 8637611 - York River East Rear Range Light, VA Image indicating link to RSS feed of recent meteorological observations for station YKRV2

Large icon indicates selected station.
yellow diamond Stations with recent data
red diamond Stations with no data in last 8 hours
     (24 hours for tsunami stations)


Conditions at YKRV2 as of
(3:18 am EDT)
0718 GMT on 10/21/2018:
     

Click on the graph icon in the table below to see a time series plot of the last five days of that observation.

5-day plot - Wind Direction Wind Direction (WDIR): NNW ( 340 deg true )
5-day plot - Wind Speed Wind Speed (WSPD): 20 kts
5-day plot - Wind Gust Wind Gust (GST): 25 kts
5-day plot - Atmospheric Pressure Atmospheric Pressure (PRES): 29.84 in
5-day plot - Air Temperature Air Temperature (ATMP): 54.3 °F
5-day plot - Wind Speed at 10 Meters Wind Speed at 10 meters (WSPD10M): 21 kts
5-day plot - Wind Speed at 10 Meters Wind Speed at 20 meters (WSPD20M): 23 kts
5-day plot - Wind Speed, Wind Gust and Atmospheric Pressure Combined plot of Wind Speed, Gust, and Air Pressure
NOS Water Level Observation Network Water Level
Previous observations
5-day plot - Wind Direction 5-day plot - Wind Speed 5-day plot - Wind Gust 5-day plot - Wave Height 5-day plot - Dominant Wave Period 5-day plot - Average Period 5-day plot - Mean Wave Direction 5-day plot - Atmospheric Pressure 5-day plot - Pressure Tendency 5-day plot - Air Temperature 5-day plot - Water Temperature 5-day plot - Dew Point 5-day plot - Salinity 5-day plot - Visibility 5-day plot - Tide (above MLLW)
MM DD TIME
(EDT)
WDIR WSPD
kts
GST
kts
WVHT
ft
DPD
sec
APD
sec
MWD PRES
in
PTDY
in
ATMP
°F
WTMP
°F
DEWP
°F
SAL
psu
VIS
nmi
TIDE
ft
1021 3:12 amNNW 23 27----29.84- 54.0-----
1021 3:06 amNNW 25 31----29.84- 54.1-----
1021 3:00 amNNW 30 37----29.84+0.11 54.3-----
1021 2:54 amNNW 35 42----29.84- 54.7-----
1021 2:48 amNNW 34 45----29.83- 55.4-----
1021 2:42 amNNW 34 42----29.82- 55.9-----
1021 2:36 amNNW 31 38----29.82- 56.1-----
1021 2:30 am N 29 37----29.81- 57.2-----
1021 2:24 am N 30 34----29.80- 57.0-----
1021 2:18 amNNW 30 34----29.80- 57.2-----
1021 2:12 am N 25 31----29.79- 57.6-----
1021 2:06 amNNW 25 30----29.79- 57.7-----
1021 2:00 am N 24 32----29.79+0.05 58.8-----
1021 1:54 amNNW 28 32----29.80- 59.0-----
1021 1:48 amNNW 22 32----29.78- 59.9-----
1021 1:42 am NW 18 21----29.76- 60.4-----
1021 1:36 amWNW 17 19----29.75- 60.6-----
1021 1:30 amWNW 16 20----29.75- 60.8-----
1021 1:24 amWNW 17 20----29.75- 61.0-----
1021 1:18 amWNW 18 20----29.75- 61.0-----
1021 1:12 amWNW 17 20----29.74- 61.3-----
1021 1:06 amWNW 17 21----29.74- 61.7-----
1021 1:00 amWNW 19 23----29.74+0.00 62.1-----
102112:54 amWNW 18 22----29.74- 62.2-----
102112:48 amWNW 18 21----29.73- 62.4-----
102112:42 amWNW 17 21----29.73- 62.2-----
102112:36 amWNW 15 18----29.74- 62.2-----
102112:30 amWNW 17 19----29.74- 62.6-----
102112:24 amWNW 18 20----29.73- 62.8-----
102112:18 amWNW 17 20----29.73- 63.1-----
102112:12 amWNW 18 20----29.73- 63.1-----
102112:06 amWNW 18 21----29.73- 63.5-----
102112:00 amWNW 18 21----29.73+0.00 63.5-----
102011:54 pmWNW 18 21----29.73- 63.5-----
102011:48 pmWNW 17 19----29.73- 63.7-----
102011:42 pmWNW 19 22----29.73- 63.9-----
102011:36 pmWNW 18 20----29.73- 63.5-----
102011:30 pmWNW 17 21----29.73- 63.5-----
102011:24 pmWNW 16 19----29.74- 63.7-----
102011:18 pmWNW 15 18----29.74- 63.7-----
102011:12 pm W 16 18----29.74- 63.3-----
102011:06 pm W 16 19----29.74- 63.3-----
102011:00 pm W 17 19----29.74+0.00 62.8-----
102010:54 pm W 16 18----29.74- 62.8-----
102010:48 pm W 14 16----29.74- 63.0-----
102010:42 pm W 14 16----29.74- 63.0-----
102010:36 pm W 15 16----29.74- 63.0-----
102010:30 pm W 14 16----29.74- 63.1-----
102010:24 pm W 13 15----29.74- 63.0-----
102010:18 pm W 14 17----29.74- 63.1-----
102010:12 pm W 14 17----29.74- 62.8-----
102010:06 pmWSW 12 14----29.74- 63.0-----
102010:00 pm W 13 15----29.74+0.01 62.6-----
1020 9:54 pm W 11 12----29.74- 62.8-----
1020 9:48 pmWSW 11 13----29.74- 62.6-----
1020 9:42 pmWSW 11 12----29.73- 62.8-----
1020 9:36 pmWSW 11 13----29.73- 62.6-----
1020 9:30 pmWSW 11 13----29.73- 62.6-----
1020 9:24 pmWSW 11 12----29.73- 62.6-----
1020 9:18 pmWSW 12 15----29.73- 62.8-----
1020 9:12 pmWSW 11 12----29.73- 63.0-----
1020 9:06 pmWSW 12 14----29.73- 62.8-----
1020 9:00 pmWSW 11 13----29.73+0.02 63.1-----
1020 8:54 pmWSW 13 16----29.73- 63.0-----
1020 8:48 pmWSW 13 14----29.73- 63.0-----
1020 8:42 pmWSW 12 15----29.74- 63.3-----
1020 8:36 pmWSW 11 13----29.74- 63.1-----
1020 8:30 pmWSW 10 12----29.74- 63.1-----
1020 8:24 pmWSW 11 13----29.74- 63.1-----
1020 8:18 pm W 11 13----29.74- 63.3-----
1020 8:12 pm W 12 14----29.74- 63.3-----
1020 8:06 pm W 12 14----29.74- 63.5-----
1020 8:00 pm W 12 14----29.74+0.02 63.1-----
1020 7:54 pm W 12 13----29.74- 63.3-----
1020 7:48 pm W 12 13----29.74- 63.3-----
1020 7:42 pm W 12 14----29.74- 63.7-----
1020 7:36 pm W 13 15----29.74- 63.5-----
1020 7:30 pm W 12 15----29.74- 63.5-----
1020 7:24 pm W 12 13----29.74- 63.7-----
1020 7:18 pm W 12 14----29.73- 63.7-----
1020 7:12 pm W 11 12----29.73- 63.7-----
1020 7:06 pm W 10 12----29.73- 63.7-----
1020 7:00 pm W 11 13----29.72-0.02 63.7-----
1020 6:54 pm W 11 12----29.72- 63.9-----
1020 6:48 pm W 11 13----29.72- 64.0-----
1020 6:42 pm W 11 14----29.72- 64.0-----
1020 6:36 pm W 13 15----29.72- 63.9-----
1020 6:30 pm W 12 14----29.72- 63.9-----
1020 6:24 pm W 13 15----29.72- 64.0-----
1020 6:18 pm W 14 16----29.71- 64.2-----
1020 6:12 pmWSW 14 15----29.71- 64.0-----
1020 6:06 pmWSW 13 16----29.71- 64.2-----
1020 6:00 pmWSW 15 18----29.71-0.06 64.2-----
1020 5:54 pmWSW 13 16----29.71- 64.4-----
1020 5:48 pmWSW 13 17----29.71- 64.4-----
1020 5:42 pmWSW 12 14----29.71- 64.6-----
1020 5:36 pmWSW 11 14----29.72- 64.4-----
1020 5:30 pmWSW 13 16----29.72- 64.8-----
1020 5:24 pm W 14 16----29.72- 64.6-----
1020 5:18 pm W 13 15----29.72- 64.6-----
1020 5:12 pm W 13 15----29.72- 64.6-----
1020 5:06 pm W 12 14----29.72- 64.8-----
1020 5:00 pm W 13 16----29.72-0.07 64.6-----
1020 4:54 pm W 13 15----29.72- 64.4-----
1020 4:48 pm W 13 15----29.72- 64.6-----
1020 4:42 pm W 14 17----29.72- 64.6-----
1020 4:36 pm W 13 16----29.73- 64.4-----
1020 4:30 pm W 14 17----29.73- 64.4-----
1020 4:24 pmWSW 13 16----29.74- 64.6-----
1020 4:18 pmWSW 13 14----29.74- 64.2-----
1020 4:12 pmWSW 13 16----29.74- 64.2-----
1020 4:06 pmWSW 14 16----29.74- 64.2-----
1020 4:00 pmWSW 14 16----29.74-0.08 64.0-----
1020 3:54 pmWSW 13 15----29.75- 64.0-----
1020 3:48 pmWSW 13 16----29.75- 64.2-----
1020 3:42 pmWSW 14 18----29.75- 64.2-----
1020 3:36 pmWSW 14 16----29.74- 64.0-----
1020 3:30 pmWSW 14 16----29.75- 64.4-----
1020 3:24 pm W 13 15----29.76- 64.2-----
1020 3:18 pm W 13 16----29.76- 63.9-----
1020 3:12 pmWSW 15 17----29.77- 63.9-----
1020 3:06 pmWSW 13 15----29.76- 63.9-----
1020 3:00 pm W 14 16----29.77-0.07 64.0-----
1020 2:54 pmWSW 15 17----29.77- 63.9-----
1020 2:48 pmWSW 15 17----29.78- 63.9-----
1020 2:42 pmWSW 15 18----29.77- 64.2-----
1020 2:36 pmWSW 14 17----29.77- 63.9-----
1020 2:30 pmWSW 14 16----29.76- 63.7-----
1020 2:24 pmWSW 14 16----29.77- 63.7-----
1020 2:18 pm W 15 17----29.78- 63.7-----
1020 2:12 pm W 16 18----29.78- 63.5-----
1020 2:06 pmWSW 16 17----29.78- 63.5-----
1020 2:00 pmWSW 14 19----29.78-0.07 64.0-----
1020 1:54 pmWSW 14 16----29.78- 63.9-----
1020 1:48 pmWSW 14 17----29.79- 63.7-----
1020 1:42 pmWSW 15 18----29.80- 63.9-----
1020 1:36 pmWSW 16 18----29.80- 63.9-----
1020 1:30 pmWSW 15 18----29.80- 64.0-----
1020 1:24 pmWSW 14 18----29.80- 63.9-----
1020 1:18 pm W 16 19----29.80- 63.5-----
1020 1:12 pmWSW 16 18----29.82- 63.7-----
1020 1:06 pmWSW 16 19----29.82- 63.7-----
1020 1:00 pmWSW 15 18----29.82-0.05 63.7-----
102012:54 pmWSW 15 17----29.83- 63.7-----
102012:48 pmWSW 13 16----29.83- 63.9-----
102012:42 pm W 16 18----29.84- 63.7-----
102012:36 pmWSW 16 18----29.84- 63.7-----
102012:30 pmWSW 14 16----29.83- 63.7-----
102012:24 pm W 12 15----29.83- 63.5-----
102012:18 pm W 13 14----29.83- 63.3-----
102012:12 pm W 14 18----29.84- 63.5-----
102012:06 pmWSW 16 18----29.84- 63.3-----
102012:00 pmWSW 16 19----29.84-0.03 63.5-----
102011:54 amWSW 15 19----29.84- 63.5-----
102011:48 am W 16 19----29.85- 63.5-----
102011:42 am W 16 19----29.85- 63.7-----
102011:36 am W 17 21----29.86- 63.9-----
102011:30 am W 18 22----29.86- 63.7-----
102011:24 am W 17 19----29.86- 63.9-----
102011:18 am W 16 19----29.86- 63.9-----
102011:12 am W 15 19----29.86- 64.0-----
102011:06 amWSW 17 19----29.86- 64.0-----
102011:00 amWSW 17 20----29.86+0.00 64.0-----
102010:54 amWSW 17 20----29.86- 64.2-----
102010:48 am W 16 19----29.87- 64.4-----
102010:42 am W 16 19----29.87- 64.4-----
102010:36 am W 17 19----29.87- 64.2-----
102010:30 am W 15 18----29.87- 64.4-----
102010:24 am W 16 19----29.87- 64.2-----
102010:18 amWSW 16 19----29.87- 64.4-----
102010:12 amWSW 16 18----29.87- 64.2-----
102010:06 am W 16 19----29.87- 64.4-----
102010:00 am W 16 19----29.87+0.00 64.4-----
1020 9:54 amWSW 16 19----29.87- 64.4-----
1020 9:48 amWSW 15 18----29.87- 64.6-----
1020 9:42 amWSW 15 17----29.86- 64.6-----
1020 9:36 amWSW 16 18----29.86- 64.4-----
1020 9:30 amWSW 15 18----29.87- 64.2-----
1020 9:24 amWSW 15 18----29.87- 64.2-----
1020 9:18 am W 13 15----29.87- 63.9-----
1020 9:12 amWSW 13 15----29.87- 63.7-----
1020 9:06 amWSW 14 16----29.87- 63.5-----
1020 9:00 amWSW 12 16----29.87-0.03 63.7-----
1020 8:54 amWSW 13 15----29.87- 63.7-----
1020 8:48 amWSW 15 16----29.88- 63.5-----
1020 8:42 amWSW 14 17----29.87- 63.3-----
1020 8:36 amWSW 16 17----29.87- 63.3-----
1020 8:30 amWSW 16 20----29.87- 63.3-----
1020 8:24 amWSW 15 20----29.87- 63.5-----
1020 8:18 amWSW 16 19----29.87- 63.1-----
1020 8:12 amWSW 17 20----29.86- 63.3-----
1020 8:06 amWSW 16 19----29.86- 63.1-----
1020 8:00 amWSW 15 18----29.86-0.06 63.0-----
1020 7:54 amWSW 16 21----29.86- 63.1-----
1020 7:48 amWSW 17 20----29.86- 62.8-----
1020 7:42 am SW 16 20----29.86- 63.1-----
1020 7:36 am SW 17 21----29.86- 62.6-----
1020 7:30 am SW 16 20----29.86- 63.0-----
1020 7:24 am SW 15 20----29.86- 62.6-----
1020 7:18 am SW 15 18----29.87- 62.8-----
1020 7:12 amWSW 15 17----29.88- 62.2-----
1020 7:06 amWSW 16 18----29.88- 62.4-----
1020 7:00 amWSW 16 19----29.87-0.06 62.2-----
1020 6:54 amWSW 15 19----29.88- 62.2-----
1020 6:48 amWSW 15 19----29.88- 62.6-----
1020 6:42 amWSW 16 19----29.88- 62.4-----
1020 6:36 amWSW 16 19----29.89- 62.4-----
1020 6:30 amWSW 16 19----29.90- 62.2-----
1020 6:24 amWSW 15 17----29.90- 62.4-----
1020 6:18 amWSW 14 16----29.90- 62.2-----
1020 6:12 amWSW 15 17----29.90- 62.2-----
1020 6:06 amWSW 14 17----29.90- 62.1-----
1020 6:00 amWSW 16 19----29.90-0.05 62.1-----
1020 5:54 amWSW 17 19----29.90- 61.9-----
1020 5:48 amWSW 17 19----29.90- 61.9-----
1020 5:42 amWSW 17 18----29.90- 61.9-----
1020 5:36 amWSW 16 20----29.91- 62.1-----
1020 5:30 amWSW 15 18----29.91- 62.4-----
1020 5:24 amWSW 16 18----29.91- 62.6-----
1020 5:18 amWSW 15 18----29.92- 62.4-----
1020 5:12 amWSW 16 18----29.92- 62.6-----
1020 5:06 amWSW 16 19----29.92- 62.8-----
1020 5:00 amWSW 16 18----29.92-0.06 63.0-----
1020 4:54 amWSW 15 18----29.92- 63.1-----
1020 4:48 amWSW 15 17----29.92- 63.0-----
1020 4:42 amWSW 16 19----29.92- 62.8-----
1020 4:36 amWSW 17 20----29.92- 63.1-----
1020 4:30 amWSW 17 20----29.93- 63.3-----
1020 4:24 amWSW 17 20----29.93- 63.1-----
1020 4:18 amWSW 17 19----29.93- 63.3-----
1020 4:12 amWSW 17 20----29.93- 63.0-----
1020 4:06 amWSW 18 20----29.93- 63.1-----
1020 4:00 amWSW 18 20----29.94-0.07 63.1-----
1020 3:54 amWSW 17 20----29.94- 63.1-----
1020 3:48 amWSW 17 20----29.94- 62.8-----
1020 3:42 am SW 17 20----29.94- 63.0-----
1020 3:36 am SW 18 21----29.95- 63.1-----
1020 3:30 am SW 17 20----29.95- 63.0-----
1020 3:24 am SW 18 22----29.95- 63.3-----
1020 3:18 am SW 17 22----29.95- 63.3-----
1020 3:12 am SW 18 21----29.95- 63.1-----
1020 3:06 am SW 19 22----29.96- 63.3-----
1020 3:00 am SW 19 23----29.95-0.07 63.3-----
1020 2:54 am SW 17 20----29.96- 63.3-----

Description of Measurements

Links which are specific to this station are listed below:

Real Time Data in tabular form for the last forty-five days.

Historical Data & Climatic Summaries for quality controlled data for the current month, previous months, and previous years.